FLOCK 4Q 14

导读

FLOCK 4Q 14是美国Planet公司FLOCK系列SuperDove遥感卫星星座的一员,于2023年11月11日发射升空,旨在补充壮大Planet公司全球对地观测卫星网络。该卫星属于新一代SuperDove遥感卫星,配置8个光谱波段,可获取高质量多光谱遥感影像,为农业、林业、环境监测等行业提供精准的对地观测数据支撑,助力各领域地理信息应用与科学决策。

基本信息
目录编号:
58311
目录名称:
FLOCK 4Q 14
国际标识:
2023-174BH
轨道中心:
EARTH
卫星名称:
FLOCK 4Q 14
卫星全名:
--
卫星状态:
已陨落 最后检测时间 2025-12-21
发射日期:
2023-11-11 UTC
国别 :
美国 (US)
星等 :
--
轨道信息
数据来源 国际轨道数据
星历时间: 2025-12-22T05:21:43+0800
轨道信息已过期216天
半长轴: 6535.855km
偏心率: 0.001142
轨道倾角: 97.363°
近地点辐角 290.855°
升交点赤经 82.549°
平近点角 69.152°
近地点: 150.254km
远地点: 165.182km
周期: 87.642分钟
每日圈数: 16.430442
详细信息
使用方式:
暂无